Regional Weather Roundup
Issued by NWS

Home | Current Version | Previous Version | Text Only | Print | Product List | Glossary On
Versions: 1 2 3 4 5 6 7 8 9 10 11 12 13 14 15 16 17 18 19 20 21 22 23 24 25 26 27
000
ASUS44 KJAN 011320
RWRMS

MISSISSIPPI HOURLY WEATHER ROUNDUP
NATIONAL WEATHER SERVICE JACKSON MS
800 AM CDT SAT OCT 01 2016

NOTE: "FAIR: INDICATES FEW OR NO CLOUDS BELOW 12,000 FEET WITH NO
SIGNIFICANT WEATHER AND/OR OBSTRUCTIONS TO VISIBILITY.

MSZ001>002-007>008-010>013-018>021-025>028-034>036-011400-
NORTHWEST MISSISSIPPI

CITY           SKY/WX    TMP DP  RH WIND       PRES   REMARKS
BATESVILLE     FAIR      52  51  97 CALM      30.12R FOG
CLARKSDALE     SUNNY     59  59 100 CALM      30.12R
CLEVELAND      FAIR      58  56  95 CALM      30.11R
GREENWOOD      SUNNY     56  52  86 CALM      30.11R
GREENVILLE     SUNNY     58  54  86 SW3       30.11R FOG
OLIVE BRANCH   MOSUNNY  N/A N/A N/A CALM      30.10R
OXFORD         PTSUNNY   54  50  87 CALM      30.12R
TUNICA         SUNNY     55  55 100 CALM      30.12R FOG
WINONA         FAIR      52  52 100 CALM      30.11R
$$

MSZ003>006-009-014>017-022>024-029>033-037>039-011400-
NORTHEAST MISSISSIPPI

CITY           SKY/WX    TMP DP  RH WIND       PRES   REMARKS
COLUMBUS AFB   SUNNY     55  53  90 CALM      30.09R
CORINTH        FAIR      54  52  94 CALM      30.09R
GOLDN TRIANGLE SUNNY     55  48  76 CALM      30.09R
STARKVILLE     FAIR      55  54  94 CALM      30.12R
TUPELO         SUNNY     58  52  80 CALM      30.10R
$$

MSZ040-058-011400-
CENTRAL MISSISSIPPI

CITY           SKY/WX    TMP DP  RH WIND       PRES   REMARKS
JACKSON INTL   SUNNY     58  54  86 CALM      30.11R
JACKSON HAWKNS SUNNY     58  55  90 NW3       30.11R
MADISON        FAIR      59  55  88 CALM      30.11R
MERIDIAN KEY   SUNNY     58  52  80 CALM      30.11R
MERIDIAN NAS   SUNNY     57  51  80 CALM      30.10R
VICKSBURG VKS  SUNNY     55  55 100 CALM      30.11R
$$

MSZ059>079-011400-
SOUTH MISSISSIPPI

CITY           SKY/WX    TMP DP  RH WIND       PRES   REMARKS
BROOKHAVEN     FAIR     N/A N/A N/A CALM      30.12R
COLUMBIA       FAIR      55  55 100 CALM      30.13R
HATTIESBURG    SUNNY     60  56  86 CALM      30.11R
LAUREL         FAIR      55  55 100 CALM      30.10R
MCCOMB         SUNNY     62  56  80 CALM      30.10R
NATCHEZ        SUNNY     57  54  88 CALM      30.11R
PINE BELT      SUNNY     61  55  82 CALM      30.11R
$$

MSZ080>082-011400-
COASTAL MISSISSIPPI

CITY           SKY/WX    TMP DP  RH WIND       PRES   REMARKS
BAY ST LOUIS   SUNNY     59  55  88 CALM      30.09R
BILOXI         SUNNY     65  61  88 N2        30.08R
PASCAGOULA     SUNNY     62  62 100 CALM      30.09R
GULFPORT       SUNNY     65  60  84 CALM      30.08R
$$

LAZ007>009-015>016-023>026-011400-
NORTHEAST LOUISIANA

CITY           SKY/WX    TMP DP  RH WIND       PRES   REMARKS
BASTROP        FAIR      56  55  98 CALM      30.12S
TALLULAH/VBURG SUNNY     58  55  90 CALM      30.12R
$$




USA.gov is the U.S. government's official web portal to all federal, state and local government web resources and services.